Flag for Norway

Past Weather in Raufoss, Norway — Yesterday and Last 2 Weeks

Now
59 °F

Cool.


Feels Like: 59 °F
Forecast: 65 / 54 °F
Wind: 2 mph from South

Location: Lillehammer-Saetherengen

Current Time: Jul 14, 2020 at 4:24:25 pm

Latest Report: Jul 14, 2020 at 3:00 pm


Visibility: N/A

Pressure: 29.80 "Hg

Humidity: 78%

Dew Point: 53 °F

Location of RaufossLocation

Past Weather in Raufoss — Graph

°F

Raufoss Temperature Yesterday

Maximum temperature yesterday: 62 °F (at 2:00 pm)
Minimum temperature yesterday: 47 °F (at 4:00 am)
Average temperature yesterday: 55 °F

High & Low Weather Summary for the Past Weeks

 TemperatureHumidityPressure
High66 °F (Jul 12, 6:00 pm)98% (Jul 14, 11:00 am)30.09 "Hg (Jul 14, 11:00 am)
Low39 °F (Jul 4, 5:00 am)30% (Jul 4, 4:00 pm)28.94 "Hg (Jul 5, 9:00 pm)
Average53 °F70%29.63 "Hg
* Reported Jun 29 3:00 pm — Jul 14 3:00 pm, Raufoss. Weather by CustomWeather, © 2020

Note: Actual official high and low records may vary slightly from our data, if they occured in-between our weather recording intervals... More about our weather records

Raufoss Weather History for the Previous 24 Hours

Scroll right to see more
 ConditionsComfort  
Time TempWeatherWind HumidityBarometerVisibility
3:00 pm
Tue, Jul 14
59 °FCool.2 mph78%29.80 "HgN/A
2:00 pm57 °FCool.2 mph87%29.81 "HgN/A
1:00 pm56 °FCool.3 mph86%29.82 "HgN/A
12:00 pm54 °FCool.1 mph96%29.83 "HgN/A
11:00 am54 °FCool.2 mph98%29.83 "HgN/A
10:00 am53 °FCool.2 mph97%29.83 "HgN/A
9:00 am54 °FCool.1 mph94%29.84 "HgN/A
8:00 am54 °FCool.2 mph91%29.84 "HgN/A
7:00 am53 °FCool.1 mph88%29.85 "HgN/A
6:00 am53 °FCool.1 mph92%29.85 "HgN/A
5:00 am53 °FCool.1 mph91%29.87 "HgN/A
4:00 am53 °FCool.1 mph90%29.87 "HgN/A
3:00 am53 °FCool.1 mph92%29.88 "HgN/A
2:00 am54 °FCool.2 mph85%29.89 "HgN/A
1:00 am55 °FCool.1 mph81%29.89 "HgN/A
12:00 am55 °FCool.1 mph75%29.90 "HgN/A
11:00 pm
Mon, Jul 13
56 °FCool.No wind69%29.91 "HgN/A
10:00 pm57 °FCool.1 mph70%29.92 "HgN/A
9:00 pm59 °FRefreshingly cool.2 mph59%29.91 "HgN/A
8:00 pm60 °FRefreshingly cool.3 mph56%29.91 "HgN/A
7:00 pm61 °FRefreshingly cool.3 mph53%29.93 "HgN/A
6:00 pm61 °FRefreshingly cool.3 mph55%29.95 "HgN/A
5:00 pm60 °FRefreshingly cool.2 mph55%29.96 "HgN/A
4:00 pm61 °FRefreshingly cool.2 mph55%29.97 "HgN/A
Weather by CustomWeather, © 2020

See weather overview